TimeHST,TemperatureF,Dew PointF,Humidity,Sea Level PressureIn,VisibilityMPH,Wind Direction,Wind SpeedMPH,Gust SpeedMPH,PrecipitationIn,Events,Conditions,WindDirDegrees,DateUTC
12:54 AM,70.0,57.9,65,30.08,10.0,NE,16.1,-,N/A,,Partly Cloudy,40,2013-01-21 10:54:00
1:54 AM,70.0,57.0,63,30.08,10.0,NE,15.0,-,N/A,,Clear,40,2013-01-21 11:54:00
2:54 AM,66.9,57.0,70,30.07,10.0,ENE,9.2,-,N/A,,Clear,60,2013-01-21 12:54:00
3:54 AM,66.9,57.0,70,30.07,10.0,ENE,9.2,-,N/A,,Clear,60,2013-01-21 13:54:00
4:54 AM,70.0,57.9,65,30.08,10.0,NE,15.0,-,N/A,,Mostly Cloudy,40,2013-01-21 14:54:00
5:54 AM,69.1,57.0,65,30.09,10.0,NE,16.1,25.3,N/A,,Clear,50,2013-01-21 15:54:00
6:54 AM,68.0,57.0,68,30.11,10.0,NE,9.2,-,N/A,,Scattered Clouds,50,2013-01-21 16:54:00
7:54 AM,71.1,57.0,61,30.12,10.0,NE,11.5,-,N/A,,Scattered Clouds,50,2013-01-21 17:54:00
8:54 AM,73.9,57.0,55,30.14,10.0,NE,12.7,-,0.01,,Scattered Clouds,50,2013-01-21 18:54:00
9:54 AM,75.9,59.0,56,30.15,10.0,NE,20.7,25.3,N/A,,Partly Cloudy,40,2013-01-21 19:54:00
10:54 AM,77.0,57.0,50,30.14,10.0,NNE,24.2,28.8,N/A,,Partly Cloudy,30,2013-01-21 20:54:00
11:54 AM,78.1,59.0,52,30.13,10.0,NNE,24.2,-,N/A,,Partly Cloudy,30,2013-01-21 21:54:00
12:54 PM,79.0,57.9,48,30.10,10.0,NNE,26.5,32.2,N/A,,Partly Cloudy,30,2013-01-21 22:54:00
1:54 PM,78.1,60.1,54,30.08,10.0,NE,25.3,31.1,N/A,,Partly Cloudy,40,2013-01-21 23:54:00
2:54 PM,78.1,59.0,52,30.07,10.0,NE,23.0,-,N/A,,Partly Cloudy,40,2013-01-22 00:54:00
3:54 PM,77.0,61.0,58,30.08,10.0,NE,24.2,31.1,N/A,,Partly Cloudy,40,2013-01-22 01:54:00
4:54 PM,75.0,60.1,60,30.09,10.0,NE,21.9,-,N/A,,Partly Cloudy,50,2013-01-22 02:54:00
5:54 PM,73.0,59.0,61,30.10,10.0,NE,15.0,-,N/A,,Partly Cloudy,40,2013-01-22 03:54:00
6:54 PM,72.0,60.1,66,30.12,10.0,NE,15.0,-,N/A,,Partly Cloudy,40,2013-01-22 04:54:00
7:54 PM,71.1,61.0,70,30.13,10.0,NE,16.1,-,N/A,,Clear,40,2013-01-22 05:54:00
8:54 PM,71.1,60.1,68,30.14,10.0,NE,16.1,-,N/A,,Clear,40,2013-01-22 06:54:00
9:54 PM,71.1,60.1,68,30.15,10.0,NE,16.1,-,N/A,,Clear,40,2013-01-22 07:54:00
10:54 PM,72.0,61.0,68,30.13,10.0,NNE,23.0,27.6,N/A,,Clear,30,2013-01-22 08:54:00
11:54 PM,71.1,62.1,73,30.14,10.0,NE,15.0,21.9,N/A,,Clear,50,2013-01-22 09:54:00